Location: Unspecified
(0.0000°N, 0.0000°E)
Time: 22:53:03
(UTC+00:00)

Vanguard 2 - Pass Details

Date: 07 October 2020
Orbit: 554 x 2937 km, 32.9° (Epoch: 28 October)

Event Time Altitude Azimuth Distance (km) Brightness Sun altitude
Rises 11:29:29 0° 284° (WNW) 2,722 10.3 82.6°
Reaches altitude 10° 11:31:44 10° 272° (W) 1,890 9.7 83.0°
Maximum altitude 11:35:25 30° 209° (SSW) 1,195 9.1 83.5°
Drops below altitude 10° 11:40:13 10° 148° (SSE) 2,485 10.4 83.9°
Sets 11:43:38 0° 138° (SE) 3,774 11.1 84.1°
